| time (UTC) | temp F | wind direction | speed MPH | gust MPH | rain 1hr in | rain 24hr in | rain mn in | humidity % | barometer mb |
| 20260507204520 | 64 | 221 | 2.0 | 7.0 | 0.00 | 0.06 | 0.02 | 64 | 1010.5 |
| 20260507204020 | 63 | 235 | 3.0 | 6.0 | 0.00 | 0.06 | 0.02 | 63 | 1010.4 |
| 20260507203521 | 63 | 234 | 3.0 | 9.0 | 0.00 | 0.06 | 0.02 | 65 | 1010.4 |
| 20260507202520 | 63 | 127 | 2.0 | 6.0 | 0.00 | 0.06 | 0.02 | 65 | 1010.4 |
| 20260507202021 | 63 | 257 | 2.0 | 3.0 | 0.00 | 0.06 | 0.02 | 67 | 1010.4 |
| 20260507201520 | 62 | 229 | 1.0 | 3.0 | 0.00 | 0.06 | 0.02 | 69 | 1010.4 |
| 20260507200520 | 60 | 233 | 1.0 | 5.0 | 0.00 | 0.06 | 0.02 | 71 | 1010.7 |
| 20260507200021 | 60 | 245 | 2.0 | 3.0 | 0.00 | 0.06 | 0.02 | 70 | 1010.9 |
| 20260507195521 | 59 | 158 | 0.0 | 3.0 | 0.00 | 0.06 | 0.02 | 76 | 1011.0 |
| 20260507195020 | 58 | 245 | 2.0 | 3.0 | 0.00 | 0.06 | 0.02 | 72 | 1011.1 |
| 20260507194520 | 58 | 133 | 0.0 | 1.0 | 0.00 | 0.06 | 0.02 | 76 | 1011.3 |
| 20260507194020 | 58 | 244 | 0.0 | 1.0 | 0.00 | 0.06 | 0.02 | 75 | 1011.4 |
| 20260507193521 | 58 | 245 | 0.0 | 1.0 | 0.00 | 0.06 | 0.02 | 77 | 1011.5 |
| 20260507193020 | 58 | 152 | 1.0 | 1.0 | 0.00 | 0.06 | 0.02 | 78 | 1011.7 |
| 20260507192520 | 57 | 214 | 0.0 | 0.0 | 0.00 | 0.06 | 0.02 | 82 | 1011.7 |
| 20260507192020 | 57 | 214 | 0.0 | 1.0 | 0.00 | 0.06 | 0.02 | 81 | 1011.6 |
| 20260507191521 | 58 | 214 | 0.0 | 1.0 | 0.00 | 0.06 | 0.02 | 81 | 1011.8 |
| 20260507190521 | 57 | 243 | 0.0 | 1.0 | 0.00 | 0.06 | 0.02 | 84 | 1011.7 |
| 20260507190020 | 57 | 247 | 0.0 | 0.0 | 0.00 | 0.06 | 0.02 | 82 | 1011.7 |
| 20260507185520 | 57 | 247 | 0.0 | 1.0 | 0.00 | 0.06 | 0.02 | 82 | 1011.9 |
| 20260507185020 | 57 | 257 | 1.0 | 2.0 | 0.00 | 0.06 | 0.02 | 82 | 1012.0 |
| 20260507184522 | 57 | 262 | 0.0 | 1.0 | 0.00 | 0.06 | 0.02 | 81 | 1011.9 |
| 20260507184020 | 57 | 259 | 0.0 | 2.0 | 0.00 | 0.06 | 0.02 | 82 | 1012.0 |
| 20260507183521 | 57 | 224 | 0.0 | 2.0 | 0.00 | 0.06 | 0.02 | 84 | 1012.0 |
| 20260507183020 | 56 | 231 | 0.0 | 0.0 | 0.00 | 0.06 | 0.02 | 84 | 1012.1 |
| 20260507182021 | 56 | 231 | 0.0 | 0.0 | 0.00 | 0.06 | 0.02 | 86 | 1012.1 |
| 20260507181520 | 56 | 231 | 0.0 | 0.0 | 0.00 | 0.06 | 0.02 | 88 | 1011.9 |
| 20260507181020 | 55 | 231 | 0.0 | 0.0 | 0.00 | 0.06 | 0.02 | 86 | 1011.9 |
| 20260507180520 | 55 | 231 | 0.0 | 0.0 | 0.01 | 0.06 | 0.02 | 88 | 1012.1 |
| 20260507180020 | 55 | 231 | 0.0 | 0.0 | 0.01 | 0.06 | 0.02 | 87 | 1012.1 |
| 20260507175520 | 55 | 231 | 0.0 | 0.0 | 0.01 | 0.06 | 0.02 | 88 | 1012.0 |
| 20260507175019 | 55 | 231 | 0.0 | 0.0 | 0.01 | 0.06 | 0.02 | 88 | 1012.1 |
| 20260507174520 | 55 | 345 | 0.0 | 0.0 | 0.01 | 0.06 | 0.02 | 89 | 1012.1 |
| 20260507174020 | 55 | 8 | 0.0 | 0.0 | 0.01 | 0.06 | 0.02 | 88 | 1012.0 |
| 20260507173519 | 55 | 8 | 0.0 | 0.0 | 0.01 | 0.06 | 0.02 | 88 | 1012.1 |
| 20260507173020 | 55 | 8 | 0.0 | 0.0 | 0.01 | 0.06 | 0.02 | 88 | 1012.2 |
| 20260507171519 | 56 | 8 | 0.0 | 0.0 | 0.01 | 0.06 | 0.02 | 85 | 1012.0 |
| 20260507171020 | 56 | 12 | 0.0 | 1.0 | 0.01 | 0.06 | 0.02 | 81 | 1012.1 |
| 20260507170520 | 57 | 129 | 0.0 | 1.0 | 0.00 | 0.05 | 0.01 | 80 | 1012.4 |
| 20260507170020 | 57 | 95 | 0.0 | 1.0 | 0.00 | 0.06 | 0.01 | 81 | 1012.3 |
| 20260507165520 | 57 | 97 | 0.0 | 2.0 | 0.00 | 0.06 | 0.01 | 81 | 1012.2 |
| 20260507165020 | 57 | 332 | 0.0 | 1.0 | 0.00 | 0.06 | 0.01 | 81 | 1012.2 |
| 20260507164019 | 57 | 218 | 1.0 | 3.0 | 0.00 | 0.06 | 0.01 | 80 | 1012.1 |
| 20260507163520 | 57 | 45 | 0.0 | 1.0 | 0.00 | 0.07 | 0.01 | 80 | 1012.1 |
| 20260507163019 | 57 | 45 | 0.0 | 1.0 | 0.00 | 0.07 | 0.01 | 79 | 1012.2 |
| 20260507162520 | 57 | 12 | 0.0 | 0.0 | 0.00 | 0.07 | 0.01 | 81 | 1012.1 |
| 20260507162019 | 58 | 11 | 0.0 | 0.0 | 0.00 | 0.07 | 0.01 | 81 | 1012.0 |
| 20260507161520 | 58 | 9 | 0.0 | 1.0 | 0.00 | 0.07 | 0.01 | 80 | 1012.0 |
| 20260507161019 | 58 | 311 | 0.0 | 0.0 | 0.00 | 0.07 | 0.01 | 81 | 1012.1 |
| 20260507160521 | 58 | 311 | 0.0 | 3.0 | 0.00 | 0.07 | 0.01 | 81 | 1012.2 |
| 20260507160021 | 58 | 342 | 0.0 | 1.0 | 0.00 | 0.07 | 0.01 | 80 | 1012.2 |
| 20260507155519 | 58 | 342 | 0.0 | 1.0 | 0.00 | 0.07 | 0.01 | 81 | 1012.3 |
| 20260507154519 | 58 | 218 | 0.0 | 1.0 | 0.00 | 0.07 | 0.01 | 80 | 1012.4 |
| 20260507154021 | 58 | 341 | 0.0 | 1.0 | 0.00 | 0.07 | 0.01 | 81 | 1012.6 |
| 20260507153020 | 58 | 176 | 0.0 | 0.0 | 0.00 | 0.07 | 0.01 | 82 | 1012.5 |
| 20260507152520 | 58 | 165 | 0.0 | 0.0 | 0.00 | 0.07 | 0.01 | 81 | 1012.5 |
| 20260507152019 | 58 | 140 | 0.0 | 1.0 | 0.00 | 0.07 | 0.01 | 82 | 1012.5 |
| 20260507151520 | 58 | 106 | 0.0 | 1.0 | 0.00 | 0.07 | 0.01 | 82 | 1012.5 |
| 20260507151019 | 58 | 111 | 1.0 | 2.0 | 0.00 | 0.07 | 0.01 | 81 | 1012.4 |
| 20260507150520 | 58 | 171 | 0.0 | 0.0 | 0.00 | 0.07 | 0.01 | 82 | 1012.4 |
| 20260507150019 | 58 | 171 | 0.0 | 1.0 | 0.00 | 0.07 | 0.01 | 82 | 1012.3 |
| 20260507145520 | 58 | 4 | 0.0 | 1.0 | 0.00 | 0.07 | 0.01 | 82 | 1012.2 |
| 20260507145019 | 58 | 3 | 0.0 | 1.0 | 0.00 | 0.07 | 0.01 | 82 | 1012.2 |
| 20260507144520 | 58 | 3 | 0.0 | 1.0 | 0.00 | 0.07 | 0.01 | 82 | 1012.3 |
| 20260507143520 | 58 | 2 | 0.0 | 2.0 | 0.00 | 0.07 | 0.01 | 82 | 1012.2 |
| 20260507142520 | 59 | 356 | 0.0 | 0.0 | 0.00 | 0.07 | 0.01 | 82 | 1012.0 |
| 20260507142019 | 59 | 351 | 0.0 | 0.0 | 0.00 | 0.07 | 0.01 | 82 | 1012.1 |
| 20260507141520 | 59 | 352 | 0.0 | 1.0 | 0.00 | 0.07 | 0.01 | 83 | 1012.1 |
| 20260507140519 | 59 | 286 | 1.0 | 3.0 | 0.00 | 0.07 | 0.01 | 83 | 1012.2 |
| 20260507140019 | 59 | 235 | 0.0 | 1.0 | 0.00 | 0.07 | 0.01 | 84 | 1011.9 |
| 20260507135519 | 59 | 59 | 1.0 | 2.0 | 0.00 | 0.07 | 0.01 | 85 | 1011.7 |
| 20260507135019 | 59 | 41 | 0.0 | 0.0 | 0.00 | 0.08 | 0.01 | 86 | 1011.9 |
| 20260507134020 | 59 | 47 | 0.0 | 0.0 | 0.00 | 0.08 | 0.01 | 85 | 1012.6 |
| 20260507133519 | 59 | 17 | 0.0 | 0.0 | 0.00 | 0.09 | 0.01 | 85 | 1012.5 |
| 20260507133021 | 59 | 29 | 0.0 | 2.0 | 0.00 | 0.09 | 0.01 | 85 | 1012.4 |
| 20260507132519 | 59 | 76 | 0.0 | 1.0 | 0.00 | 0.09 | 0.01 | 85 | 1012.3 |
| 20260507132019 | 58 | 136 | 0.0 | 1.0 | 0.00 | 0.09 | 0.01 | 86 | 1012.4 |
| 20260507131519 | 59 | 147 | 0.0 | 0.0 | 0.00 | 0.09 | 0.01 | 85 | 1012.4 |
| 20260507131020 | 59 | 179 | 0.0 | 0.0 | 0.00 | 0.09 | 0.01 | 86 | 1012.6 |
| 20260507130519 | 59 | 150 | 0.0 | 0.0 | 0.00 | 0.09 | 0.01 | 86 | 1012.7 |
| 20260507130019 | 59 | 131 | 0.0 | 1.0 | 0.00 | 0.09 | 0.01 | 86 | 1012.4 |
| 20260507125519 | 59 | 143 | 0.0 | 0.0 | 0.00 | 0.10 | 0.01 | 85 | 1012.3 |
| 20260507125019 | 59 | 143 | 0.0 | 0.0 | 0.00 | 0.10 | 0.01 | 87 | 1012.2 |
| 20260507124519 | 59 | 142 | 0.0 | 0.0 | 0.00 | 0.10 | 0.01 | 87 | 1012.4 |
| 20260507124019 | 58 | 195 | 0.0 | 0.0 | 0.00 | 0.10 | 0.01 | 87 | 1012.4 |
| 20260507123519 | 58 | 195 | 0.0 | 0.0 | 0.00 | 0.10 | 0.01 | 88 | 1012.4 |
| 20260507122519 | 58 | 263 | 0.0 | 2.0 | 0.00 | 0.10 | 0.01 | 89 | 1012.5 |
| 20260507122019 | 58 | 27 | 0.0 | 0.0 | 0.00 | 0.10 | 0.01 | 89 | 1012.4 |
| 20260507121518 | 58 | 27 | 0.0 | 0.0 | 0.00 | 0.10 | 0.01 | 89 | 1012.4 |
| 20260507121019 | 58 | 27 | 0.0 | 0.0 | 0.00 | 0.10 | 0.01 | 90 | 1012.2 |
| 20260507120519 | 58 | 39 | 0.0 | 0.0 | 0.00 | 0.10 | 0.01 | 89 | 1012.2 |
| 20260507120019 | 58 | 317 | 0.0 | 0.0 | 0.00 | 0.10 | 0.01 | 91 | 1012.4 |
| 20260507115520 | 58 | 319 | 0.0 | 0.0 | 0.00 | 0.10 | 0.01 | 91 | 1012.3 |
| 20260507115020 | 58 | 319 | 0.0 | 0.0 | 0.00 | 0.10 | 0.01 | 90 | 1012.2 |
| 20260507114519 | 58 | 319 | 0.0 | 0.0 | 0.00 | 0.10 | 0.01 | 91 | 1012.2 |
| 20260507113519 | 58 | 263 | 0.0 | 0.0 | 0.00 | 0.10 | 0.01 | 92 | 1012.2 |
| 20260507113019 | 58 | 263 | 0.0 | 0.0 | 0.00 | 0.10 | 0.01 | 92 | 1012.0 |
| 20260507112518 | 58 | 263 | 0.0 | 0.0 | 0.00 | 0.10 | 0.01 | 92 | 1011.9 |
| 20260507112019 | 58 | 263 | 0.0 | 0.0 | 0.00 | 0.10 | 0.01 | 91 | 1011.8 |
| 20260507111518 | 58 | 263 | 0.0 | 0.0 | 0.00 | 0.10 | 0.01 | 91 | 1012.0 |
| 20260507111019 | 58 | 263 | 0.0 | 0.0 | 0.00 | 0.10 | 0.01 | 91 | 1011.8 |
| 20260507110519 | 58 | 263 | 0.0 | 0.0 | 0.00 | 0.10 | 0.01 | 92 | 1011.6 |
| 20260507110019 | 58 | 263 | 0.0 | 0.0 | 0.00 | 0.10 | 0.01 | 92 | 1011.7 |
| 20260507105518 | 58 | 263 | 0.0 | 0.0 | 0.00 | 0.10 | 0.01 | 92 | 1011.8 |
| 20260507105020 | 58 | 101 | 0.0 | 0.0 | 0.00 | 0.10 | 0.01 | 92 | 1011.6 |
| 20260507104518 | 58 | 101 | 0.0 | 0.0 | 0.00 | 0.10 | 0.01 | 92 | 1011.8 |
| 20260507104019 | 58 | 101 | 0.0 | 1.0 | 0.00 | 0.10 | 0.01 | 91 | 1011.6 |
| 20260507103520 | 58 | 241 | 0.0 | 0.0 | 0.00 | 0.10 | 0.01 | 92 | 1011.4 |
| 20260507103018 | 58 | 241 | 0.0 | 0.0 | 0.00 | 0.10 | 0.01 | 92 | 1011.4 |
| 20260507102519 | 58 | 241 | 0.0 | 0.0 | 0.00 | 0.10 | 0.01 | 92 | 1011.5 |
| 20260507102019 | 58 | 241 | 0.0 | 0.0 | 0.00 | 0.10 | 0.01 | 92 | 1011.3 |
| 20260507101518 | 58 | 241 | 0.0 | 0.0 | 0.00 | 0.10 | 0.01 | 91 | 1011.7 |
| 20260507101020 | 58 | 241 | 0.0 | 0.0 | 0.00 | 0.10 | 0.01 | 91 | 1011.5 |
| 20260507095518 | 58 | 241 | 0.0 | 0.0 | 0.00 | 0.10 | 0.01 | 92 | 1011.3 |
| 20260507095019 | 59 | 241 | 0.0 | 0.0 | 0.00 | 0.10 | 0.01 | 92 | 1011.4 |
| 20260507094518 | 59 | 241 | 0.0 | 0.0 | 0.00 | 0.10 | 0.01 | 93 | 1011.7 |
| 20260507094019 | 59 | 241 | 0.0 | 0.0 | 0.00 | 0.10 | 0.01 | 93 | 1011.6 |
| 20260507093519 | 59 | 229 | 0.0 | 0.0 | 0.00 | 0.10 | 0.01 | 93 | 1011.2 |
| 20260507093018 | 59 | 229 | 0.0 | 0.0 | 0.00 | 0.10 | 0.01 | 93 | 1011.4 |
| 20260507092519 | 59 | 229 | 0.0 | 0.0 | 0.00 | 0.10 | 0.01 | 94 | 1011.6 |
| 20260507092018 | 60 | 229 | 0.0 | 1.0 | 0.00 | 0.10 | 0.01 | 95 | 1011.7 |
| 20260507091020 | 60 | 229 | 0.0 | 0.0 | 0.00 | 0.10 | 0.01 | 95 | 1011.4 |
| 20260507090020 | 60 | 229 | 0.0 | 0.0 | 0.00 | 0.10 | 0.01 | 96 | 1010.8 |
| 20260507085518 | 60 | 229 | 0.0 | 1.0 | 0.00 | 0.10 | 0.01 | 96 | 1010.7 |
| 20260507085019 | 60 | 229 | 0.0 | 0.0 | 0.00 | 0.10 | 0.01 | 96 | 1011.2 |
| 20260507084518 | 60 | 229 | 0.0 | 0.0 | 0.00 | 0.10 | 0.01 | 96 | 1011.0 |
| 20260507083519 | 60 | 229 | 0.0 | 1.0 | 0.00 | 0.10 | 0.01 | 96 | 1011.3 |
| 20260507083018 | 60 | 229 | 0.0 | 1.0 | 0.00 | 0.10 | 0.01 | 96 | 1011.6 |
| 20260507082519 | 60 | 229 | 0.0 | 1.0 | 0.00 | 0.10 | 0.01 | 95 | 1011.4 |
| 20260507082018 | 60 | 229 | 1.0 | 1.0 | 0.00 | 0.10 | 0.01 | 96 | 1011.2 |
| 20260507081519 | 60 | 229 | 0.0 | 1.0 | 0.00 | 0.10 | 0.01 | 95 | 1011.3 |
| 20260507080518 | 61 | 216 | 0.0 | 0.0 | 0.00 | 0.10 | 0.01 | 97 | 1011.2 |
| 20260507080019 | 61 | 216 | 0.0 | 0.0 | 0.00 | 0.10 | 0.01 | 97 | 1011.5 |
| 20260507075518 | 61 | 184 | 0.0 | 0.0 | 0.00 | 0.10 | 0.01 | 96 | 1011.4 |
| 20260507075019 | 61 | 184 | 0.0 | 0.0 | 0.00 | 0.10 | 0.01 | 96 | 1011.4 |
| 20260507074518 | 61 | 184 | 0.0 | 0.0 | 0.00 | 0.10 | 0.01 | 96 | 1011.5 |
| 20260507073519 | 61 | 184 | 0.0 | 0.0 | 0.00 | 0.10 | 0.01 | 96 | 1011.5 |
| 20260507073018 | 61 | 184 | 0.0 | 0.0 | 0.00 | 0.10 | 0.01 | 96 | 1011.5 |
| 20260507072520 | 61 | 184 | 0.0 | 0.0 | 0.00 | 0.10 | 0.01 | 97 | 1011.8 |
| 20260507072018 | 61 | 184 | 0.0 | 0.0 | 0.00 | 0.10 | 0.01 | 96 | 1011.5 |
| 20260507071519 | 61 | 184 | 0.0 | 0.0 | 0.00 | 0.10 | 0.01 | 97 | 1011.5 |
| 20260507071018 | 61 | 184 | 0.0 | 0.0 | 0.00 | 0.10 | 0.01 | 97 | 1011.2 |
| 20260507070518 | 61 | 184 | 0.0 | 0.0 | 0.00 | 0.10 | 0.01 | 97 | 1011.3 |
| 20260507070019 | 61 | 184 | 0.0 | 0.0 | 0.00 | 0.10 | 0.01 | 96 | 1011.3 |
| 20260507065018 | 61 | 168 | 0.0 | 0.0 | 0.00 | 0.10 | 0.01 | 96 | 1011.0 |
| 20260507064518 | 61 | 168 | 0.0 | 0.0 | 0.00 | 0.10 | 0.01 | 96 | 1011.0 |
| 20260507064018 | 61 | 168 | 0.0 | 0.0 | 0.00 | 0.10 | 0.01 | 96 | 1011.1 |
| 20260507063519 | 61 | 168 | 0.0 | 0.0 | 0.01 | 0.10 | 0.01 | 96 | 1011.5 |
| 20260507063018 | 61 | 168 | 0.0 | 0.0 | 0.01 | 0.10 | 0.01 | 96 | 1011.5 |
| 20260507062519 | 61 | 165 | 0.0 | 0.0 | 0.01 | 0.10 | 0.01 | 96 | 1011.1 |
| 20260507062018 | 61 | 165 | 0.0 | 0.0 | 0.01 | 0.10 | 0.01 | 96 | 1011.2 |
| 20260507061518 | 61 | 165 | 0.0 | 0.0 | 0.01 | 0.10 | 0.01 | 95 | 1011.2 |
| 20260507061018 | 61 | 165 | 0.0 | 0.0 | 0.01 | 0.10 | 0.01 | 95 | 1011.0 |
| 20260507060518 | 61 | 165 | 0.0 | 0.0 | 0.01 | 0.10 | 0.01 | 95 | 1010.9 |
| 20260507055019 | 62 | 165 | 0.0 | 0.0 | 0.01 | 0.10 | 0.01 | 94 | 1011.4 |
| 20260507054519 | 62 | 165 | 0.0 | 0.0 | 0.01 | 0.10 | 0.01 | 94 | 1011.6 |
| 20260507054018 | 62 | 165 | 0.0 | 2.0 | 0.01 | 0.10 | 0.01 | 94 | 1011.6 |
| 20260507053518 | 62 | 60 | 1.0 | 1.0 | 0.00 | 0.09 | 0.00 | 94 | 1011.5 |
| 20260507052518 | 62 | 340 | 0.0 | 1.0 | 0.00 | 0.09 | 0.00 | 95 | 1011.7 |
| 20260507052018 | 62 | 340 | 1.0 | 1.0 | 0.00 | 0.09 | 0.00 | 95 | 1011.7 |
| 20260507051519 | 62 | 338 | 0.0 | 1.0 | 0.00 | 0.09 | 0.00 | 95 | 1011.7 |
| 20260507051018 | 62 | 90 | 1.0 | 2.0 | 0.00 | 0.09 | 0.00 | 95 | 1011.5 |
| 20260507050018 | 62 | 248 | 1.0 | 1.0 | 0.00 | 0.09 | 0.00 | 95 | 1011.7 |
| 20260507045518 | 62 | 258 | 0.0 | 1.0 | 0.00 | 0.09 | 0.00 | 95 | 1011.5 |
| 20260507045017 | 62 | 301 | 0.0 | 0.0 | 0.00 | 0.09 | 0.00 | 95 | 1011.3 |
| 20260507044518 | 62 | 264 | 0.0 | 0.0 | 0.00 | 0.09 | 0.00 | 95 | 1011.2 |
| 20260507044018 | 62 | 264 | 0.0 | 1.0 | 0.00 | 0.09 | 0.00 | 95 | 1011.2 |
| 20260507043018 | 62 | 265 | 1.0 | 1.0 | 0.00 | 0.09 | 0.00 | 95 | 1011.2 |
| 20260507042018 | 62 | 264 | 0.0 | 2.0 | 0.00 | 0.09 | 0.00 | 95 | 1011.3 |
| 20260507041519 | 62 | 338 | 0.0 | 0.0 | 0.00 | 0.09 | 0.00 | 95 | 1011.3 |
| 20260507041018 | 62 | 300 | 0.0 | 0.0 | 0.00 | 0.09 | 0.00 | 95 | 1011.3 |
| 20260507040017 | 63 | 79 | 0.0 | 0.0 | 0.00 | 0.09 | 0.00 | 94 | 1011.6 |
| 20260507035518 | 63 | 79 | 0.0 | 1.0 | 0.00 | 0.09 | 0.09 | 94 | 1011.7 |
| 20260507035018 | 63 | 75 | 0.0 | 1.0 | 0.00 | 0.09 | 0.09 | 94 | 1011.5 |
| 20260507034518 | 63 | 75 | 0.0 | 1.0 | 0.00 | 0.09 | 0.09 | 94 | 1011.7 |
| 20260507034018 | 63 | 75 | 1.0 | 1.0 | 0.00 | 0.09 | 0.09 | 94 | 1011.9 |
| 20260507033517 | 63 | 39 | 1.0 | 1.0 | 0.00 | 0.09 | 0.09 | 94 | 1011.9 |
| 20260507033018 | 63 | 30 | 0.0 | 1.0 | 0.02 | 0.09 | 0.09 | 93 | 1012.2 |
| 20260507032518 | 63 | 25 | 1.0 | 2.0 | 0.03 | 0.09 | 0.09 | 93 | 1012.4 |
| 20260507032018 | 63 | 65 | 1.0 | 2.0 | 0.03 | 0.09 | 0.09 | 93 | 1012.9 |
| 20260507031517 | 63 | 81 | 1.0 | 2.0 | 0.03 | 0.09 | 0.09 | 94 | 1013.0 |
| 20260507030518 | 64 | 86 | 1.0 | 1.0 | 0.04 | 0.09 | 0.09 | 92 | 1012.9 |
| 20260507030018 | 64 | 93 | 0.0 | 1.0 | 0.04 | 0.09 | 0.09 | 92 | 1012.9 |
| 20260507025518 | 64 | 93 | 0.0 | 0.0 | 0.04 | 0.09 | 0.09 | 91 | 1012.7 |
| 20260507025017 | 65 | 93 | 0.0 | 1.0 | 0.04 | 0.09 | 0.09 | 90 | 1012.3 |
| 20260507024517 | 65 | 118 | 0.0 | 2.0 | 0.04 | 0.09 | 0.09 | 89 | 1012.4 |
| 20260507024018 | 65 | 212 | 0.0 | 1.0 | 0.04 | 0.09 | 0.09 | 88 | 1012.3 |
| 20260507023518 | 66 | 250 | 1.0 | 2.0 | 0.04 | 0.09 | 0.09 | 86 | 1012.4 |
| 20260507023019 | 66 | 184 | 1.0 | 2.0 | 0.02 | 0.07 | 0.07 | 85 | 1012.5 |
| 20260507022517 | 67 | 254 | 1.0 | 5.0 | 0.01 | 0.06 | 0.06 | 83 | 1012.9 |
| 20260507022017 | 67 | 271 | 2.0 | 6.0 | 0.01 | 0.06 | 0.06 | 81 | 1012.7 |
| 20260507021517 | 68 | 227 | 2.0 | 5.0 | 0.01 | 0.06 | 0.06 | 80 | 1012.4 |
| 20260507021017 | 68 | 270 | 2.0 | 3.0 | 0.00 | 0.05 | 0.05 | 79 | 1012.1 |
| 20260507020518 | 69 | 270 | 1.0 | 9.0 | 0.00 | 0.05 | 0.05 | 78 | 1011.9 |
| 20260507020018 | 68 | 278 | 2.0 | 5.0 | 0.00 | 0.05 | 0.05 | 77 | 1012.1 |
| 20260507015518 | 68 | 242 | 2.0 | 5.0 | 0.00 | 0.05 | 0.05 | 78 | 1012.1 |
| 20260507014017 | 66 | 264 | 1.0 | 2.0 | 0.00 | 0.05 | 0.05 | 84 | 1011.8 |
| 20260507013517 | 66 | 257 | 1.0 | 3.0 | 0.00 | 0.05 | 0.05 | 84 | 1011.7 |
| 20260507013018 | 66 | 149 | 2.0 | 7.0 | 0.00 | 0.05 | 0.05 | 84 | 1011.4 |
| 20260507012517 | 65 | 347 | 0.0 | 1.0 | 0.00 | 0.05 | 0.05 | 85 | 1011.4 |
| 20260507012019 | 66 | 110 | 0.0 | 0.0 | 0.00 | 0.05 | 0.05 | 85 | 1011.4 |
| 20260507010517 | 66 | 118 | 1.0 | 2.0 | 0.00 | 0.05 | 0.05 | 85 | 1011.8 |
| 20260507010017 | 66 | 150 | 0.0 | 2.0 | 0.00 | 0.05 | 0.05 | 84 | 1011.8 |
| 20260507005518 | 66 | 26 | 0.0 | 2.0 | 0.00 | 0.05 | 0.05 | 84 | 1011.9 |
| 20260507005019 | 66 | 134 | 0.0 | 1.0 | 0.00 | 0.05 | 0.05 | 84 | 1011.7 |
| 20260507004517 | 66 | 342 | 0.0 | 1.0 | 0.00 | 0.05 | 0.05 | 83 | 1011.7 |
| 20260507004017 | 66 | 323 | 0.0 | 2.0 | 0.00 | 0.05 | 0.05 | 83 | 1011.6 |
| 20260507003518 | 66 | 268 | 1.0 | 3.0 | 0.00 | 0.05 | 0.05 | 83 | 1011.4 |
| 20260507003018 | 66 | 131 | 0.0 | 0.0 | 0.00 | 0.05 | 0.05 | 83 | 1011.4 |
| 20260507002517 | 66 | 54 | 0.0 | 0.0 | 0.00 | 0.05 | 0.05 | 84 | 1011.3 |
| 20260507002017 | 66 | 30 | 0.0 | 0.0 | 0.00 | 0.05 | 0.05 | 83 | 1011.3 |
| 20260507001518 | 66 | 6 | 1.0 | 1.0 | 0.00 | 0.05 | 0.05 | 83 | 1011.4 |
| 20260507001019 | 66 | 120 | 0.0 | 1.0 | 0.00 | 0.05 | 0.05 | 83 | 1011.1 |
| 20260507000517 | 67 | 119 | 0.0 | 2.0 | 0.00 | 0.05 | 0.05 | 83 | 1011.0 |
| 20260507000017 | 67 | 151 | 1.0 | 3.0 | 0.00 | 0.05 | 0.05 | 82 | 1011.0 |
| 20260506235518 | 67 | 323 | 0.0 | 1.0 | 0.00 | 0.05 | 0.05 | 81 | 1011.0 |
| 20260506234517 | 68 | 304 | 0.0 | 1.0 | 0.00 | 0.05 | 0.05 | 80 | 1011.1 |
| 20260506234018 | 68 | 90 | 0.0 | 0.0 | 0.00 | 0.05 | 0.05 | 80 | 1011.3 |
| 20260506233517 | 68 | 89 | 0.0 | 1.0 | 0.00 | 0.05 | 0.05 | 80 | 1011.4 |
| 20260506233017 | 69 | 85 | 0.0 | 1.0 | 0.00 | 0.05 | 0.05 | 80 | 1011.4 |
| 20260506232517 | 69 | 126 | 1.0 | 2.0 | 0.00 | 0.05 | 0.05 | 79 | 1011.5 |
| 20260506232017 | 69 | 41 | 1.0 | 3.0 | 0.00 | 0.05 | 0.05 | 79 | 1011.3 |
| 20260506231517 | 69 | 103 | 0.0 | 2.0 | 0.00 | 0.05 | 0.05 | 78 | 1011.2 |
| 20260506231017 | 69 | 350 | 1.0 | 2.0 | 0.00 | 0.05 | 0.05 | 79 | 1010.8 |
| 20260506230517 | 68 | 124 | 1.0 | 2.0 | 0.00 | 0.05 | 0.05 | 80 | 1010.9 |
| 20260506230017 | 68 | 105 | 1.0 | 2.0 | 0.00 | 0.05 | 0.05 | 81 | 1010.9 |
| 20260506225518 | 68 | 90 | 0.0 | 2.0 | 0.00 | 0.05 | 0.05 | 81 | 1011.1 |
| 20260506224517 | 68 | 8 | 0.0 | 3.0 | 0.00 | 0.05 | 0.05 | 80 | 1011.4 |
| 20260506224017 | 68 | 93 | 1.0 | 1.0 | 0.00 | 0.05 | 0.05 | 79 | 1011.5 |
| 20260506223517 | 69 | 115 | 1.0 | 1.0 | 0.00 | 0.05 | 0.05 | 79 | 1011.5 |
| 20260506223017 | 69 | 352 | 1.0 | 2.0 | 0.00 | 0.05 | 0.05 | 78 | 1011.7 |
| 20260506222517 | 70 | 88 | 1.0 | 2.0 | 0.00 | 0.05 | 0.05 | 77 | 1011.5 |
| 20260506222017 | 70 | 330 | 0.0 | 2.0 | 0.00 | 0.05 | 0.05 | 77 | 1011.5 |
| 20260506221516 | 70 | 272 | 1.0 | 2.0 | 0.00 | 0.05 | 0.05 | 76 | 1011.4 |
| 20260506221017 | 71 | 337 | 1.0 | 3.0 | 0.00 | 0.05 | 0.05 | 75 | 1011.2 |
| 20260506220518 | 71 | 296 | 1.0 | 3.0 | 0.00 | 0.05 | 0.05 | 74 | 1011.3 |
| 20260506220016 | 72 | 123 | 0.0 | 3.0 | 0.00 | 0.05 | 0.05 | 74 | 1011.4 |
| 20260506215016 | 74 | 259 | 2.0 | 3.0 | 0.00 | 0.05 | 0.05 | 72 | 1011.1 |
| 20260506214517 | 74 | 125 | 2.0 | 3.0 | 0.00 | 0.05 | 0.05 | 71 | 1010.9 |
| 20260506214017 | 73 | 150 | 1.0 | 3.0 | 0.00 | 0.05 | 0.05 | 74 | 1011.0 |
| 20260506213017 | 72 | 109 | 1.0 | 3.0 | 0.00 | 0.05 | 0.05 | 75 | 1010.9 |
| 20260506212518 | 72 | 119 | 1.0 | 3.0 | 0.00 | 0.05 | 0.05 | 76 | 1011.0 |
| 20260506212017 | 71 | 285 | 1.0 | 2.0 | 0.00 | 0.05 | 0.05 | 76 | 1011.0 |
| 20260506211517 | 71 | 261 | 0.0 | 2.0 | 0.00 | 0.05 | 0.05 | 78 | 1011.1 |
| 20260506210518 | 70 | 99 | 0.0 | 0.0 | 0.00 | 0.05 | 0.05 | 78 | 1010.9 |
| 20260506210017 | 70 | 75 | 1.0 | 2.0 | 0.00 | 0.05 | 0.05 | 78 | 1010.8 |
| 20260506205516 | 69 | 46 | 0.0 | 3.0 | 0.00 | 0.05 | 0.05 | 80 | 1010.8 |